AXI200 KSAV-LPPD

Flight info

Callsign AXI200
Flight time 5h 45m
Altitude 41000
Route JROSS DCT ELLDE Q97 KOHLS DCT ORF AR9 ZIBUT/M084 DCT 37N070W 38N060W 39N050W 39N040W 39N030W DCT SOMUL
Aircraft C700/M-SDFGHJ1J7M3RWYZ/LB1D1

Departure

Time 2026-04-28 08:00
Airport Savannah Hilton Head International Airport (KSAV)

Arrival

Time 2026-04-28 13:45
Airport João Paulo II Airport (LPPD)
Time Latitude Longitude Altitude Speed Heading
2026-04-28 07:49 32.12573 -81.20617 47 ft 0 kts
2026-04-28 07:56 32.12576 -81.20616 44 ft 1 kts 10°
2026-04-28 07:57 32.12589 -81.20600 46 ft 5 kts 29°
2026-04-28 07:57 32.12618 -81.20621 47 ft 8 kts 324°
2026-04-28 07:57 32.12688 -81.20654 45 ft 10 kts 324°
2026-04-28 07:57 32.12696 -81.20732 46 ft 10 kts 271°
2026-04-28 07:58 32.12699 -81.20823 46 ft 12 kts 271°
2026-04-28 07:58 32.12699 -81.20922 46 ft 13 kts 271°
2026-04-28 07:58 32.12714 -81.21026 45 ft 13 kts 317°
2026-04-28 07:58 32.12806 -81.21076 40 ft 18 kts 359°
2026-04-28 07:59 32.12867 -81.21076 36 ft 1 kts 46°
2026-04-28 07:59 32.12867 -81.20990 36 ft 35 kts 90°
2026-04-28 07:59 32.12865 -81.20375 36 ft 114 kts 90°
2026-04-28 07:59 32.12860 -81.19203 195 ft 165 kts 89°
2026-04-28 08:00 32.13117 -81.17770 733 ft 192 kts 50°
2026-04-28 08:00 32.14277 -81.17057 1789 ft 197 kts 13°
2026-04-28 08:00 32.15535 -81.16363 2675 ft 206 kts 50°
2026-04-28 08:00 32.16461 -81.14972 3571 ft 229 kts 52°
2026-04-28 08:01 32.17655 -81.13567 4407 ft 256 kts 42°
2026-04-28 08:01 32.19066 -81.12155 5340 ft 278 kts 39°
2026-04-28 08:01 32.20536 -81.10646 6841 ft 276 kts 41°
2026-04-28 08:01 32.21952 -81.09132 8114 ft 281 kts 41°
2026-04-28 08:02 32.12573 -81.20617 9133 ft 0 kts
2026-04-28 08:07 32.12574 -81.20617 47 ft 1 kts 359°
2026-04-28 08:07 32.12609 -81.20617 47 ft 9 kts 356°
2026-04-28 08:07 32.12690 -81.20651 46 ft 14 kts 325°
2026-04-28 08:08 32.12697 -81.20705 46 ft 7 kts 267°
2026-04-28 08:08 32.12697 -81.20769 46 ft 9 kts 268°
2026-04-28 08:08 32.12698 -81.20848 46 ft 11 kts 274°
2026-04-28 08:08 32.12700 -81.20944 46 ft 13 kts 269°
2026-04-28 08:09 32.12727 -81.21039 46 ft 14 kts 320°
2026-04-28 08:09 32.12830 -81.21072 38 ft 20 kts
2026-04-28 08:09 32.12867 -81.20987 36 ft 29 kts 91°
2026-04-28 08:09 32.12863 -81.20407 36 ft 110 kts 90°
2026-04-28 08:10 32.12854 -81.19255 211 ft 162 kts 88°
2026-04-28 08:10 32.13097 -81.17877 884 ft 187 kts 56°
2026-04-28 08:10 32.14096 -81.16837 1870 ft 197 kts 42°
2026-04-28 08:10 32.15129 -81.15705 2928 ft 209 kts 46°
2026-04-28 08:11 32.16262 -81.14453 3751 ft 237 kts 44°
2026-04-28 08:11 32.17562 -81.13090 4597 ft 263 kts 41°
2026-04-28 08:11 32.18988 -81.11606 5649 ft 278 kts 41°
2026-04-28 08:11 32.20403 -81.10115 7125 ft 276 kts 41°
2026-04-28 08:12 32.21866 -81.08567 8394 ft 282 kts 40°
2026-04-28 08:12 32.23333 -81.07018 9622 ft 288 kts 40°
2026-04-28 08:12 32.24847 -81.05422 10700 ft 300 kts 39°
2026-04-28 08:12 32.26473 -81.03708 11464 ft 320 kts 40°
2026-04-28 08:13 32.28133 -81.01948 12826 ft 321 kts 40°
2026-04-28 08:13 32.29813 -81.00171 14079 ft 326 kts 40°
2026-04-28 08:13 32.31517 -80.98369 15155 ft 331 kts 40°
2026-04-28 08:13 32.33244 -80.96542 16246 ft 336 kts 39°
2026-04-28 08:14 32.34996 -80.94686 17322 ft 341 kts 39°
2026-04-28 08:14 32.36773 -80.92802 18396 ft 345 kts 39°
2026-04-28 08:14 32.38574 -80.90893 19316 ft 350 kts 39°
2026-04-28 08:14 32.40404 -80.88953 20209 ft 355 kts 39°
2026-04-28 08:15 32.42256 -80.86986 21094 ft 360 kts 38°
2026-04-28 08:15 32.44135 -80.84990 21942 ft 365 kts 38°
2026-04-28 08:15 32.46043 -80.82964 22769 ft 370 kts 38°
2026-04-28 08:15 32.47949 -80.80936 23586 ft 375 kts 38°
2026-04-28 08:16 32.49903 -80.78858 24307 ft 380 kts 38°
2026-04-28 08:16 32.51882 -80.76750 25022 ft 385 kts 38°
2026-04-28 08:16 32.53885 -80.74616 25721 ft 390 kts 38°
2026-04-28 08:16 32.55914 -80.72453 26388 ft 395 kts 38°
2026-04-28 08:17 32.57978 -80.70253 27016 ft 401 kts 38°
2026-04-28 08:17 32.60062 -80.68027 27669 ft 405 kts 38°
2026-04-28 08:17 32.62170 -80.65776 28304 ft 410 kts 38°
2026-04-28 08:17 32.64305 -80.63493 28953 ft 415 kts 38°
2026-04-28 08:18 32.66464 -80.61184 29604 ft 420 kts 39°
2026-04-28 08:18 32.68647 -80.58848 30240 ft 425 kts 39°
2026-04-28 08:18 32.70825 -80.56515 30777 ft 429 kts 39°
2026-04-28 08:18 32.73083 -80.54095 31275 ft 435 kts 39°
2026-04-28 08:19 32.75349 -80.51666 31645 ft 443 kts 39°
2026-04-28 08:19 32.77648 -80.49199 32085 ft 448 kts 40°
2026-04-28 08:19 32.79942 -80.46733 32561 ft 452 kts 40°
2026-04-28 08:19 32.82292 -80.44207 32974 ft 458 kts 40°
2026-04-28 08:20 32.84665 -80.41656 33455 ft 461 kts 40°
2026-04-28 08:20 32.87049 -80.39087 34107 ft 461 kts 40°
2026-04-28 08:20 32.89424 -80.36528 34644 ft 461 kts 40°
2026-04-28 08:20 32.91801 -80.33966 35204 ft 460 kts 40°
2026-04-28 08:21 32.94164 -80.31417 35748 ft 458 kts 40°
2026-04-28 08:21 32.96523 -80.28870 36259 ft 457 kts 39°
2026-04-28 08:21 32.98874 -80.26329 36743 ft 455 kts 39°
2026-04-28 08:21 33.01218 -80.23795 37203 ft 454 kts 39°
2026-04-28 08:22 33.03554 -80.21266 37634 ft 453 kts 39°
2026-04-28 08:22 33.05885 -80.18742 38032 ft 452 kts 39°
2026-04-28 08:22 33.08208 -80.16224 38437 ft 451 kts 39°
2026-04-28 08:22 33.10530 -80.13706 38760 ft 451 kts 39°
2026-04-28 08:23 33.12857 -80.11182 39043 ft 451 kts 39°
2026-04-28 08:23 33.15175 -80.08663 39320 ft 450 kts 39°
2026-04-28 08:23 33.17453 -80.06186 39601 ft 448 kts 38°
2026-04-28 08:23 33.19759 -80.03677 39883 ft 447 kts 38°
2026-04-28 08:24 33.22058 -80.01175 40159 ft 445 kts 38°
2026-04-28 08:24 33.24352 -79.98677 40230 ft 449 kts 38°
2026-04-28 08:24 33.29036 -79.93570 40246 ft 460 kts 38°
2026-04-28 08:25 33.33819 -79.88344 40248 ft 470 kts 38°
2026-04-28 08:26 33.41174 -79.80295 40253 ft 484 kts 38°
2026-04-28 08:26 33.46186 -79.74797 40248 ft 491 kts 38°
2026-04-28 08:27 33.51189 -79.69300 40247 ft 490 kts 38°
2026-04-28 08:27 33.56207 -79.63779 40254 ft 489 kts 39°
2026-04-28 08:28 33.61213 -79.58261 40254 ft 487 kts 39°
2026-04-28 08:28 33.66215 -79.52740 40250 ft 490 kts 39°
2026-04-28 08:29 33.71166 -79.47264 40256 ft 492 kts 39°
2026-04-28 08:29 33.76207 -79.41681 40277 ft 493 kts 39°
2026-04-28 08:30 33.81212 -79.36126 40248 ft 486 kts 39°
2026-04-28 08:30 33.86178 -79.30611 40245 ft 488 kts 39°
2026-04-28 08:31 33.91184 -79.25038 40254 ft 492 kts 39°
2026-04-28 08:31 33.96175 -79.19471 40254 ft 490 kts 39°
2026-04-28 08:32 34.01171 -79.13891 40253 ft 487 kts 39°
2026-04-28 08:32 34.06136 -79.08337 40259 ft 487 kts 39°
2026-04-28 08:33 34.11111 -79.02763 40266 ft 489 kts 39°
2026-04-28 08:33 34.16076 -78.97188 40264 ft 489 kts 39°
2026-04-28 08:34 34.21046 -78.91599 40261 ft 487 kts 39°
2026-04-28 08:34 34.25987 -78.86035 40263 ft 486 kts 39°
2026-04-28 08:35 34.30951 -78.80436 40266 ft 490 kts 39°
2026-04-28 08:35 34.35949 -78.74786 40276 ft 491 kts 39°
2026-04-28 08:36 34.40972 -78.69211 40264 ft 486 kts 34°
2026-04-28 08:36 34.46334 -78.64288 40272 ft 482 kts 33°
2026-04-28 08:37 34.51620 -78.59376 40259 ft 482 kts 32°
2026-04-28 08:37 34.56967 -78.54444 40263 ft 485 kts 33°
2026-04-28 08:38 34.62344 -78.49448 40266 ft 487 kts 33°
2026-04-28 08:38 34.67720 -78.44460 40266 ft 485 kts 33°
2026-04-28 08:39 34.73082 -78.39470 40256 ft 484 kts 32°
2026-04-28 08:39 34.78412 -78.34503 40260 ft 482 kts 32°
2026-04-28 08:40 34.83750 -78.29522 40263 ft 484 kts 32°
2026-04-28 08:40 34.89074 -78.24544 40269 ft 487 kts 33°
2026-04-28 08:41 34.94457 -78.19502 40268 ft 488 kts 32°
2026-04-28 08:41 34.99822 -78.14467 40268 ft 484 kts 32°
2026-04-28 08:42 35.05147 -78.09465 40264 ft 482 kts 32°
2026-04-28 08:42 35.10479 -78.04446 40270 ft 485 kts 32°
2026-04-28 08:43 35.15809 -77.99420 40284 ft 487 kts 32°
2026-04-28 08:43 35.21175 -77.94350 40277 ft 486 kts 32°
2026-04-28 08:44 35.26495 -77.89316 40281 ft 480 kts 32°
2026-04-28 08:44 35.31782 -77.84309 40271 ft 482 kts 32°
2026-04-28 08:45 35.37097 -77.79261 40278 ft 485 kts 32°
2026-04-28 08:45 35.42440 -77.74179 40281 ft 485 kts 32°
2026-04-28 08:46 35.47754 -77.69116 40274 ft 482 kts 32°
2026-04-28 08:46 35.53037 -77.64075 40270 ft 480 kts 32°
2026-04-28 08:47 35.58320 -77.59027 40268 ft 483 kts 32°
2026-04-28 08:47 35.63565 -77.54000 40260 ft 478 kts 32°
2026-04-28 08:48 35.68789 -77.48993 40251 ft 476 kts 32°
2026-04-28 08:48 35.74032 -77.43956 40256 ft 480 kts 32°
2026-04-28 08:49 35.79314 -77.38868 40263 ft 481 kts 32°
2026-04-28 08:49 35.84574 -77.33797 40263 ft 479 kts 32°
2026-04-28 08:50 35.89814 -77.28736 40267 ft 477 kts 32°
2026-04-28 08:50 35.95117 -77.23837 40266 ft 475 kts 28°
2026-04-28 08:51 36.00534 -77.19168 40274 ft 472 kts 28°
2026-04-28 08:51 36.05877 -77.14526 40282 ft 469 kts 28°
2026-04-28 08:52 36.10356 -77.10652 40267 ft 475 kts 28°
2026-04-28 08:52 36.15799 -77.05911 40272 ft 479 kts 28°
2026-04-28 08:53 36.21197 -77.01212 40272 ft 474 kts 28°
2026-04-28 08:53 36.26581 -76.96517 40268 ft 473 kts 28°
2026-04-28 08:54 36.31991 -76.91792 40271 ft 477 kts 28°
2026-04-28 08:54 36.37346 -76.86896 40271 ft 487 kts 35°
2026-04-28 08:55 36.42113 -76.80908 40271 ft 482 kts 39°
2026-04-28 08:55 36.46785 -76.74944 40259 ft 483 kts 39°
2026-04-28 08:56 36.51485 -76.68894 40272 ft 488 kts 39°
2026-04-28 08:56 36.56199 -76.62828 40275 ft 492 kts 39°
2026-04-28 08:57 36.60930 -76.56723 40280 ft 488 kts 39°
2026-04-28 08:57 36.65629 -76.50653 40275 ft 486 kts 39°
2026-04-28 08:58 36.70325 -76.44574 40293 ft 486 kts 39°
2026-04-28 08:58 36.75022 -76.38482 40275 ft 486 kts 39°
2026-04-28 08:59 36.79706 -76.32396 40275 ft 486 kts 39°
2026-04-28 08:59 36.84285 -76.26157 40242 ft 492 kts 46°
2026-04-28 09:00 36.87701 -76.18643 40243 ft 506 kts 63°
2026-04-28 09:00 36.89404 -76.10076 40253 ft 518 kts 79°
2026-04-28 09:01 36.89701 -76.01058 40258 ft 519 kts 84°
2026-04-28 09:01 36.89940 -75.92025 40249 ft 518 kts 84°
2026-04-28 09:02 36.90166 -75.83031 40248 ft 518 kts 84°
2026-04-28 09:02 36.90388 -75.74056 40248 ft 520 kts 83°
2026-04-28 09:03 36.90606 -75.65054 40246 ft 517 kts 83°
2026-04-28 09:03 36.90816 -75.56096 40240 ft 515 kts 83°
2026-04-28 09:04 36.91010 -75.47112 40237 ft 518 kts 84°
2026-04-28 09:04 36.91199 -75.38084 40241 ft 519 kts 83°
2026-04-28 09:05 36.91512 -75.29142 40238 ft 513 kts 82°
2026-04-28 09:05 36.91787 -75.20222 40231 ft 515 kts 83°
2026-04-28 09:06 36.91939 -75.11239 40235 ft 518 kts 83°
2026-04-28 09:06 36.92080 -75.02272 40233 ft 518 kts 83°
2026-04-28 09:07 36.92209 -74.93326 40228 ft 512 kts 83°
2026-04-28 09:07 36.92340 -74.84406 40227 ft 515 kts 83°
2026-04-28 09:08 36.92457 -74.75420 40219 ft 519 kts 83°
2026-04-28 09:08 36.92571 -74.66396 40223 ft 517 kts 83°
2026-04-28 09:09 36.92677 -74.57444 40224 ft 514 kts 83°
2026-04-28 09:09 36.92777 -74.48516 40219 ft 514 kts 83°
2026-04-28 09:10 36.92877 -74.39553 40229 ft 517 kts 83°
2026-04-28 09:10 36.93030 -74.30608 40223 ft 519 kts 83°
2026-04-28 09:11 36.93144 -74.21586 40220 ft 517 kts 83°
2026-04-28 09:11 36.93270 -74.12618 40218 ft 515 kts 83°
2026-04-28 09:12 36.93379 -74.03672 40212 ft 514 kts 83°
2026-04-28 09:12 36.93488 -73.94708 40216 ft 517 kts 83°
2026-04-28 09:13 36.93585 -73.85703 40206 ft 518 kts 83°
2026-04-28 09:13 36.93678 -73.76766 40202 ft 517 kts 83°
2026-04-28 09:14 36.93751 -73.67717 40203 ft 517 kts 84°
2026-04-28 09:14 36.93733 -73.58782 40196 ft 515 kts 84°
2026-04-28 09:15 36.93756 -73.49869 40190 ft 511 kts 84°
2026-04-28 09:15 36.93779 -73.40970 40189 ft 513 kts 84°
2026-04-28 09:16 36.93805 -73.32025 40192 ft 515 kts 84°
2026-04-28 09:16 36.93821 -73.23058 40186 ft 510 kts 83°
2026-04-28 09:17 36.93842 -73.14238 40178 ft 507 kts 83°
2026-04-28 09:17 36.93851 -73.05441 40176 ft 511 kts 84°
2026-04-28 09:18 36.93853 -72.96528 40180 ft 512 kts 84°
2026-04-28 09:18 36.93859 -72.87658 40176 ft 506 kts 84°
2026-04-28 09:19 36.93857 -72.78889 40166 ft 505 kts 84°
2026-04-28 09:19 36.93849 -72.70075 40171 ft 509 kts 84°
2026-04-28 09:20 36.94017 -72.61237 40166 ft 507 kts 81°
2026-04-28 09:20 36.94323 -72.52468 40160 ft 502 kts 81°
2026-04-28 09:21 36.94598 -72.43845 40154 ft 500 kts 81°
2026-04-28 09:21 36.94885 -72.35107 40153 ft 504 kts 81°
2026-04-28 09:22 36.95154 -72.26326 40162 ft 504 kts 81°
2026-04-28 09:22 36.95423 -72.17578 40157 ft 502 kts 81°
2026-04-28 09:23 36.95682 -72.08884 40141 ft 500 kts 81°
2026-04-28 09:23 36.95937 -72.00176 40143 ft 503 kts 81°
2026-04-28 09:24 36.96184 -71.91417 40141 ft 505 kts 81°
2026-04-28 09:24 36.96426 -71.82620 40137 ft 505 kts 81°
2026-04-28 09:25 36.96660 -71.73910 40136 ft 503 kts 81°
2026-04-28 09:25 36.96889 -71.65167 40128 ft 501 kts 81°
2026-04-28 09:26 36.97112 -71.56452 40131 ft 502 kts 81°
2026-04-28 09:26 36.97327 -71.47728 40126 ft 506 kts 81°
2026-04-28 09:27 36.97638 -71.34527 40125 ft 504 kts 81°
2026-04-28 09:27 36.97838 -71.25796 40116 ft 501 kts 81°
2026-04-28 09:28 36.98033 -71.17061 40115 ft 503 kts 81°
2026-04-28 09:28 36.98218 -71.08351 40105 ft 505 kts 81°
2026-04-28 09:29 36.98400 -70.99538 40102 ft 506 kts 81°
2026-04-28 09:29 36.98574 -70.90745 40100 ft 504 kts 81°
2026-04-28 09:30 36.98743 -70.81986 40092 ft 502 kts 81°
2026-04-28 09:30 36.98903 -70.73270 40076 ft 502 kts 81°
2026-04-28 09:31 36.99059 -70.64516 40078 ft 505 kts 81°
2026-04-28 09:31 36.99208 -70.55708 40071 ft 507 kts 81°
2026-04-28 09:32 36.99348 -70.46907 40060 ft 504 kts 81°
2026-04-28 09:32 36.99484 -70.38228 40061 ft 500 kts 81°
2026-04-28 09:33 36.99615 -70.29496 40061 ft 504 kts 81°
2026-04-28 09:33 36.99737 -70.20688 40059 ft 507 kts 81°
2026-04-28 09:34 36.99850 -70.11907 40046 ft 502 kts 81°
2026-04-28 09:34 36.99963 -70.03195 40029 ft 501 kts 81°
2026-04-28 09:35 37.00765 -69.94697 40031 ft 492 kts 71°
2026-04-28 09:35 37.01972 -69.86242 40070 ft 493 kts 71°
2026-04-28 09:36 37.03173 -69.77797 40018 ft 492 kts 71°
2026-04-28 09:36 37.04367 -69.69374 40019 ft 491 kts 71°
2026-04-28 09:37 37.05553 -69.60950 40008 ft 491 kts 71°
2026-04-28 09:37 37.06735 -69.52514 40023 ft 493 kts 71°
2026-04-28 09:38 37.07911 -69.44071 40001 ft 498 kts 72°
2026-04-28 09:38 37.09098 -69.35500 39994 ft 499 kts 72°
2026-04-28 09:39 37.10273 -69.26960 39994 ft 496 kts 72°
2026-04-28 09:39 37.11439 -69.18461 40004 ft 494 kts 73°
2026-04-28 09:40 37.12409 -69.11357 39972 ft 499 kts 73°
2026-04-28 09:40 37.13573 -69.02753 39974 ft 500 kts 73°
2026-04-28 09:41 37.14732 -68.94165 39958 ft 499 kts 73°
2026-04-28 09:41 37.15881 -68.85600 39967 ft 497 kts 74°
2026-04-28 09:42 37.17023 -68.77039 39956 ft 498 kts 75°
2026-04-28 09:42 37.18154 -68.68504 39937 ft 500 kts 75°
2026-04-28 09:43 37.19289 -68.59895 39938 ft 501 kts 75°
2026-04-28 09:43 37.20420 -68.51272 39930 ft 502 kts 75°
2026-04-28 09:44 37.21549 -68.42600 39919 ft 504 kts 76°
2026-04-28 09:44 37.22677 -68.33892 39922 ft 505 kts 76°
2026-04-28 09:45 37.23794 -68.25212 39906 ft 502 kts 76°
2026-04-28 09:45 37.24894 -68.16627 39893 ft 501 kts 77°
2026-04-28 09:46 37.25999 -68.07947 39900 ft 506 kts 77°
2026-04-28 09:46 37.27102 -67.99210 39898 ft 505 kts 77°
2026-04-28 09:47 37.28191 -67.90547 39884 ft 500 kts 77°
2026-04-28 09:47 37.29275 -67.81883 39884 ft 503 kts 77°
2026-04-28 09:48 37.30357 -67.73165 39882 ft 507 kts 77°
2026-04-28 09:48 37.31435 -67.64422 39872 ft 505 kts 77°
2026-04-28 09:49 37.32501 -67.55729 39871 ft 502 kts 77°
2026-04-28 09:49 37.33561 -67.47038 39861 ft 505 kts 78°
2026-04-28 09:50 37.34615 -67.38331 39865 ft 509 kts 78°
2026-04-28 09:50 37.35669 -67.29560 39857 ft 504 kts 78°
2026-04-28 09:51 37.36709 -67.20875 39855 ft 503 kts 78°
2026-04-28 09:51 37.37747 -67.12130 39845 ft 508 kts 78°
2026-04-28 09:52 37.38778 -67.03391 39849 ft 507 kts 78°
2026-04-28 09:52 37.39804 -66.94638 39838 ft 504 kts 78°
2026-04-28 09:53 37.40819 -66.85933 39838 ft 504 kts 79°
2026-04-28 09:53 37.41833 -66.77169 39841 ft 508 kts 79°
2026-04-28 09:54 37.42846 -66.68351 39847 ft 508 kts 79°
2026-04-28 09:54 37.43845 -66.59597 39826 ft 503 kts 79°
2026-04-28 09:55 37.44827 -66.50947 39823 ft 504 kts 80°
2026-04-28 09:55 37.45817 -66.42162 39825 ft 508 kts 80°
2026-04-28 09:56 37.46801 -66.33359 39821 ft 506 kts 80°
2026-04-28 09:56 37.47774 -66.24600 39818 ft 503 kts 80°
2026-04-28 09:57 37.48739 -66.15856 39819 ft 504 kts 81°
2026-04-28 09:57 37.49700 -66.07085 39822 ft 506 kts 81°
2026-04-28 09:58 37.50659 -65.98276 39819 ft 508 kts 81°
2026-04-28 09:58 37.51605 -65.89509 39815 ft 502 kts 81°
2026-04-28 09:59 37.52536 -65.80841 39810 ft 504 kts 81°
2026-04-28 09:59 37.53472 -65.72049 39814 ft 507 kts 81°
2026-04-28 10:00 37.54404 -65.63234 39815 ft 506 kts 81°
2026-04-28 10:00 37.55326 -65.54455 39808 ft 504 kts 82°
2026-04-28 10:01 37.56237 -65.45705 39806 ft 503 kts 82°
2026-04-28 10:01 37.57144 -65.36937 39808 ft 506 kts 82°
2026-04-28 10:02 37.58049 -65.28132 39815 ft 507 kts 83°
2026-04-28 10:02 37.58943 -65.19348 39810 ft 504 kts 83°
2026-04-28 10:03 37.59822 -65.10664 39809 ft 502 kts 83°
2026-04-28 10:03 37.60701 -65.01900 39811 ft 504 kts 83°
2026-04-28 10:04 37.61578 -64.93106 39803 ft 507 kts 83°
2026-04-28 10:04 37.62453 -64.84252 39806 ft 507 kts 84°
2026-04-28 10:05 37.63316 -64.75451 39806 ft 505 kts 84°
2026-04-28 10:05 37.64171 -64.66667 39806 ft 503 kts 84°
2026-04-28 10:06 37.65010 -64.57981 39808 ft 501 kts 84°
2026-04-28 10:06 37.65848 -64.49231 39810 ft 504 kts 84°
2026-04-28 10:07 37.66685 -64.40427 39816 ft 506 kts 84°
2026-04-28 10:07 37.67518 -64.31591 39806 ft 505 kts 84°
2026-04-28 10:08 37.68341 -64.22788 39805 ft 502 kts 84°
2026-04-28 10:08 37.69148 -64.14085 39807 ft 504 kts 84°
2026-04-28 10:09 37.69959 -64.05272 39811 ft 506 kts 84°
2026-04-28 10:09 37.70767 -63.96417 39814 ft 507 kts 85°
2026-04-28 10:10 37.71567 -63.87572 39817 ft 506 kts 85°
2026-04-28 10:10 37.72360 -63.78734 39818 ft 505 kts 85°
2026-04-28 10:11 37.73139 -63.69978 39821 ft 504 kts 86°
2026-04-28 10:11 37.73919 -63.61129 39819 ft 503 kts 86°
2026-04-28 10:12 37.74681 -63.52411 39818 ft 502 kts 86°
2026-04-28 10:12 37.75441 -63.43637 39826 ft 503 kts 86°
2026-04-28 10:13 37.76198 -63.34825 39847 ft 507 kts 87°
2026-04-28 10:13 37.76953 -63.25961 39845 ft 505 kts 87°
2026-04-28 10:14 37.77696 -63.17161 39847 ft 502 kts 87°
2026-04-28 10:14 37.78430 -63.08368 39841 ft 505 kts 89°
2026-04-28 10:15 37.79163 -62.99498 39855 ft 512 kts 89°
2026-04-28 10:15 37.79905 -62.90510 39855 ft 509 kts 89°
2026-04-28 10:16 37.80619 -62.81701 39852 ft 506 kts 89°
2026-04-28 10:16 37.81337 -62.72761 39865 ft 515 kts 89°
2026-04-28 10:17 37.82063 -62.63684 39888 ft 518 kts 89°
2026-04-28 10:17 37.82777 -62.54665 39881 ft 513 kts 90°
2026-04-28 10:18 37.83477 -62.45668 39877 ft 517 kts 89°
2026-04-28 10:18 37.84186 -62.36525 39899 ft 525 kts 89°
2026-04-28 10:19 37.84892 -62.27348 39907 ft 521 kts 90°
2026-04-28 10:19 37.85575 -62.18308 39894 ft 520 kts 90°
2026-04-28 10:20 37.86263 -62.09120 39912 ft 527 kts 89°
2026-04-28 10:20 37.86952 -61.99893 39921 ft 526 kts 90°
2026-04-28 10:21 37.87626 -61.90697 39907 ft 524 kts 89°
2026-04-28 10:21 37.88296 -61.81468 39918 ft 528 kts 89°
2026-04-28 10:22 37.88966 -61.72173 39926 ft 529 kts 89°
2026-04-28 10:22 37.89623 -61.62929 39932 ft 526 kts 89°
2026-04-28 10:23 37.90265 -61.53783 39940 ft 525 kts 90°
2026-04-28 10:23 37.90906 -61.44572 39952 ft 526 kts 90°
2026-04-28 10:24 37.91541 -61.35322 39960 ft 528 kts 90°
2026-04-28 10:24 37.92172 -61.26042 39957 ft 529 kts 90°
2026-04-28 10:25 37.92797 -61.16729 39966 ft 530 kts 90°
2026-04-28 10:25 37.93311 -61.08990 39976 ft 530 kts 90°
2026-04-28 10:26 37.93922 -60.99684 39975 ft 527 kts 90°
2026-04-28 10:26 37.94523 -60.90407 39979 ft 529 kts 90°
2026-04-28 10:27 37.95117 -60.81143 40005 ft 531 kts 90°
2026-04-28 10:27 37.95708 -60.71804 39998 ft 531 kts 90°
2026-04-28 10:28 37.96290 -60.62464 40003 ft 532 kts 90°
2026-04-28 10:29 37.97156 -60.48397 40016 ft 534 kts 90°
2026-04-28 10:29 37.97723 -60.39008 40025 ft 535 kts 90°
2026-04-28 10:30 37.98283 -60.29628 40028 ft 538 kts 90°
2026-04-28 10:30 37.98840 -60.20175 40034 ft 536 kts 90°
2026-04-28 10:31 37.99386 -60.10766 40042 ft 535 kts 90°
2026-04-28 10:31 37.99929 -60.01338 40054 ft 537 kts 89°
2026-04-28 10:32 38.01165 -59.91994 40064 ft 542 kts 83°
2026-04-28 10:32 38.02497 -59.82579 40065 ft 543 kts 83°
2026-04-28 10:33 38.03851 -59.73123 40067 ft 545 kts 83°
2026-04-28 10:33 38.05185 -59.63674 40084 ft 543 kts 83°
2026-04-28 10:34 38.06510 -59.54261 40081 ft 542 kts 83°
2026-04-28 10:34 38.07829 -59.44820 40096 ft 545 kts 83°
2026-04-28 10:35 38.09151 -59.35313 40108 ft 546 kts 83°
2026-04-28 10:35 38.10460 -59.25837 40109 ft 543 kts 83°
2026-04-28 10:36 38.11755 -59.16396 40120 ft 542 kts 83°
2026-04-28 10:36 38.13039 -59.06973 40132 ft 547 kts 83°
2026-04-28 10:37 38.14334 -58.97436 40119 ft 544 kts 83°
2026-04-28 10:37 38.15602 -58.88012 40123 ft 540 kts 83°
2026-04-28 10:38 38.16862 -58.78595 40129 ft 545 kts 83°
2026-04-28 10:38 38.18129 -58.69082 40146 ft 544 kts 83°
2026-04-28 10:39 38.19379 -58.59616 40141 ft 541 kts 83°
2026-04-28 10:39 38.20620 -58.50163 40148 ft 542 kts 83°
2026-04-28 10:40 38.21857 -58.40677 40153 ft 544 kts 83°
2026-04-28 10:40 38.23083 -58.31217 40164 ft 547 kts 83°
2026-04-28 10:41 38.24313 -58.21675 40169 ft 545 kts 83°
2026-04-28 10:41 38.25525 -58.12193 40169 ft 542 kts 83°
2026-04-28 10:42 38.26731 -58.02697 40174 ft 544 kts 83°
2026-04-28 10:42 38.27933 -57.93178 40177 ft 546 kts 84°
2026-04-28 10:43 38.29134 -57.83597 40186 ft 549 kts 83°
2026-04-28 10:43 38.30326 -57.74029 40196 ft 544 kts 83°
2026-04-28 10:44 38.31492 -57.64591 40192 ft 545 kts 83°
2026-04-28 10:44 38.32667 -57.55019 40198 ft 549 kts 83°
2026-04-28 10:45 38.33843 -57.45387 40204 ft 549 kts 83°
2026-04-28 10:45 38.35004 -57.35795 40207 ft 545 kts 83°
2026-04-28 10:46 38.36154 -57.26233 40226 ft 548 kts 83°
2026-04-28 10:46 38.37294 -57.16685 40227 ft 551 kts 83°
2026-04-28 10:47 38.38446 -57.06969 40215 ft 549 kts 83°
2026-04-28 10:47 38.39568 -56.97430 40221 ft 546 kts 83°
2026-04-28 10:48 38.40687 -56.87856 40225 ft 547 kts 83°
2026-04-28 10:48 38.41803 -56.78228 40239 ft 550 kts 83°
2026-04-28 10:49 38.42918 -56.68552 40246 ft 551 kts 83°
2026-04-28 10:49 38.44021 -56.58897 40249 ft 549 kts 83°
2026-04-28 10:50 38.45111 -56.49282 40245 ft 547 kts 83°
2026-04-28 10:50 38.46188 -56.39719 40257 ft 549 kts 83°
2026-04-28 10:51 38.47274 -56.29994 40258 ft 551 kts 83°
2026-04-28 10:51 38.48342 -56.20365 40260 ft 552 kts 83°
2026-04-28 10:52 38.49406 -56.10691 40259 ft 549 kts 83°
2026-04-28 10:52 38.50458 -56.01056 40258 ft 547 kts 83°
2026-04-28 10:53 38.51501 -55.91425 40275 ft 548 kts 83°
2026-04-28 10:53 38.52539 -55.81760 40278 ft 551 kts 83°
2026-04-28 10:54 38.53575 -55.72047 40275 ft 551 kts 83°
2026-04-28 10:54 38.54586 -55.62489 41228 ft 529 kts 83°
2026-04-28 10:55 38.55570 -55.53102 41288 ft 537 kts 83°
2026-04-28 10:55 38.56557 -55.43626 41299 ft 544 kts 83°
2026-04-28 10:56 38.57546 -55.34043 41298 ft 541 kts 83°
2026-04-28 10:56 38.58519 -55.24544 41289 ft 538 kts 83°
2026-04-28 10:57 38.59486 -55.15024 41295 ft 543 kts 83°
2026-04-28 10:57 38.60454 -55.05412 41305 ft 544 kts 83°
2026-04-28 10:58 38.61411 -54.95827 41294 ft 541 kts 83°
2026-04-28 10:58 38.62356 -54.86289 41297 ft 541 kts 83°
2026-04-28 10:59 38.63291 -54.76770 41298 ft 544 kts 83°
2026-04-28 10:59 38.64231 -54.67118 41301 ft 547 kts 82°
2026-04-28 11:00 38.65160 -54.57486 41317 ft 545 kts 82°
2026-04-28 11:00 38.66078 -54.47887 41302 ft 542 kts 82°
2026-04-28 11:01 38.66986 -54.38320 41310 ft 542 kts 82°
2026-04-28 11:01 38.67888 -54.28719 41313 ft 545 kts 82°
2026-04-28 11:02 38.68782 -54.19122 41322 ft 546 kts 82°
2026-04-28 11:02 38.69670 -54.09500 41320 ft 543 kts 82°
2026-04-28 11:03 38.70547 -53.99918 41313 ft 540 kts 82°
2026-04-28 11:03 38.71415 -53.90343 41313 ft 541 kts 82°
2026-04-28 11:04 38.72277 -53.80741 41315 ft 543 kts 82°
2026-04-28 11:04 38.73132 -53.71124 41318 ft 543 kts 82°
2026-04-28 11:05 38.73979 -53.61520 41314 ft 541 kts 82°
2026-04-28 11:05 38.74808 -53.52016 41312 ft 539 kts 82°
2026-04-28 11:06 38.75632 -53.42492 41311 ft 539 kts 82°
2026-04-28 11:06 38.76452 -53.32911 41333 ft 542 kts 82°
2026-04-28 11:07 38.77267 -53.23297 41333 ft 544 kts 82°
2026-04-28 11:07 38.78077 -53.13646 41332 ft 543 kts 82°
2026-04-28 11:08 38.78875 -53.04035 41323 ft 540 kts 82°
2026-04-28 11:08 38.79663 -52.94467 41326 ft 538 kts 82°
2026-04-28 11:09 38.80439 -52.84932 41323 ft 539 kts 82°
2026-04-28 11:09 38.81207 -52.75410 41327 ft 541 kts 82°
2026-04-28 11:10 38.81974 -52.65790 41328 ft 542 kts 82°
2026-04-28 11:10 38.82730 -52.56201 41338 ft 538 kts 82°
2026-04-28 11:11 38.83475 -52.46678 41328 ft 536 kts 82°
2026-04-28 11:11 38.84214 -52.37116 41331 ft 540 kts 82°
2026-04-28 11:12 38.84949 -52.27496 41334 ft 542 kts 82°
2026-04-28 11:12 38.85673 -52.17911 41327 ft 538 kts 82°
2026-04-28 11:13 38.86384 -52.08407 41332 ft 533 kts 82°
2026-04-28 11:13 38.87082 -51.98983 41331 ft 535 kts 82°
2026-04-28 11:14 38.87666 -51.90999 41332 ft 538 kts 82°
2026-04-28 11:14 38.88360 -51.81418 41340 ft 539 kts 82°
2026-04-28 11:15 38.89043 -51.71875 41347 ft 535 kts 82°
2026-04-28 11:15 38.89709 -51.62459 41333 ft 531 kts 82°
2026-04-28 11:16 38.90373 -51.52987 41332 ft 534 kts 82°
2026-04-28 11:16 38.91032 -51.43445 41336 ft 537 kts 82°
2026-04-28 11:17 38.91685 -51.33879 41331 ft 535 kts 82°
2026-04-28 11:17 38.92326 -51.24390 41341 ft 531 kts 82°
2026-04-28 11:18 38.92954 -51.14967 41331 ft 529 kts 82°
2026-04-28 11:18 38.93577 -51.05525 41330 ft 532 kts 82°
2026-04-28 11:19 38.94190 -50.96081 41334 ft 535 kts 82°
2026-04-28 11:19 38.94800 -50.86584 41329 ft 531 kts 82°
2026-04-28 11:20 38.95394 -50.77196 41316 ft 524 kts 82°
2026-04-28 11:20 38.95984 -50.67812 41316 ft 528 kts 82°
2026-04-28 11:21 38.96566 -50.58358 41322 ft 531 kts 82°
2026-04-28 11:21 38.97142 -50.48918 41318 ft 528 kts 82°
2026-04-28 11:22 38.97707 -50.39520 41322 ft 524 kts 82°
2026-04-28 11:22 38.98257 -50.30261 41320 ft 522 kts 82°
2026-04-28 11:23 38.98805 -50.20919 41321 ft 525 kts 82°
2026-04-28 11:23 38.99346 -50.11526 41322 ft 528 kts 82°
2026-04-28 11:24 38.99880 -50.02133 41315 ft 526 kts 82°
2026-04-28 11:24 39.00333 -49.92800 41312 ft 520 kts 84°
2026-04-28 11:25 39.00676 -49.83511 41306 ft 521 kts 83°
2026-04-28 11:25 39.01089 -49.74227 41308 ft 525 kts 84°
2026-04-28 11:26 39.01444 -49.64824 41308 ft 524 kts 84°
2026-04-28 11:26 39.01826 -49.55487 41303 ft 521 kts 84°
2026-04-28 11:27 39.02176 -49.46199 41304 ft 519 kts 84°
2026-04-28 11:27 39.02531 -49.36921 41303 ft 521 kts 84°
2026-04-28 11:28 39.02873 -49.27595 41305 ft 523 kts 84°
2026-04-28 11:28 39.03214 -49.18220 41315 ft 525 kts 84°
2026-04-28 11:29 39.03540 -49.08951 41303 ft 519 kts 84°
2026-04-28 11:29 39.03862 -48.99692 41292 ft 519 kts 84°
2026-04-28 11:30 39.04176 -48.90374 41294 ft 523 kts 84°
2026-04-28 11:30 39.04636 -48.76341 41291 ft 522 kts 84°
2026-04-28 11:31 39.04932 -48.67031 41295 ft 519 kts 85°
2026-04-28 11:31 39.05218 -48.57784 41285 ft 516 kts 85°
2026-04-28 11:32 39.05498 -48.48540 41279 ft 518 kts 85°
2026-04-28 11:32 39.05771 -48.39245 41285 ft 521 kts 85°
2026-04-28 11:33 39.06036 -48.29965 41284 ft 522 kts 85°
2026-04-28 11:33 39.06295 -48.20646 41278 ft 519 kts 85°
2026-04-28 11:34 39.06546 -48.11379 41268 ft 517 kts 85°
2026-04-28 11:34 39.06789 -48.02110 41269 ft 519 kts 85°
2026-04-28 11:35 39.07024 -47.92852 41270 ft 522 kts 85°
2026-04-28 11:35 39.07255 -47.83503 41273 ft 522 kts 85°
2026-04-28 11:36 39.07477 -47.74174 41268 ft 520 kts 85°
2026-04-28 11:36 39.07691 -47.64885 41266 ft 518 kts 85°
2026-04-28 11:37 39.07898 -47.55591 41260 ft 521 kts 86°
2026-04-28 11:37 39.08098 -47.46254 41260 ft 523 kts 86°
2026-04-28 11:38 39.08292 -47.36878 41266 ft 524 kts 85°
2026-04-28 11:38 39.08477 -47.27514 41259 ft 522 kts 86°
2026-04-28 11:39 39.08654 -47.18238 41252 ft 521 kts 86°
2026-04-28 11:39 39.08825 -47.08873 41251 ft 519 kts 86°
2026-04-28 11:40 39.08987 -46.99622 41244 ft 521 kts 86°
2026-04-28 11:40 39.09143 -46.90268 41252 ft 524 kts 86°
2026-04-28 11:41 39.09291 -46.80889 41252 ft 523 kts 86°
2026-04-28 11:41 39.09431 -46.71546 41241 ft 521 kts 86°
2026-04-28 11:42 39.09564 -46.62243 41239 ft 519 kts 86°
2026-04-28 11:42 39.09690 -46.52943 41246 ft 521 kts 86°
2026-04-28 11:43 39.09808 -46.43592 41232 ft 524 kts 86°
2026-04-28 11:43 39.09919 -46.34207 41231 ft 523 kts 86°
2026-04-28 11:44 39.10022 -46.24937 41228 ft 520 kts 86°
2026-04-28 11:44 39.10117 -46.15627 41220 ft 519 kts 86°
2026-04-28 11:45 39.10207 -46.06296 41225 ft 521 kts 86°
2026-04-28 11:45 39.10287 -45.96949 41220 ft 521 kts 86°
2026-04-28 11:46 39.10361 -45.87623 41218 ft 520 kts 86°
2026-04-28 11:46 39.10426 -45.78387 41208 ft 518 kts 86°
2026-04-28 11:47 39.10484 -45.69121 41206 ft 517 kts 86°
2026-04-28 11:47 39.10536 -45.59859 41208 ft 517 kts 86°
2026-04-28 11:48 39.10579 -45.50605 41203 ft 517 kts 86°
2026-04-28 11:48 39.10615 -45.41353 41202 ft 517 kts 86°
2026-04-28 11:49 39.10645 -45.32106 41195 ft 516 kts 86°
2026-04-28 11:49 39.10666 -45.22843 41193 ft 516 kts 86°
2026-04-28 11:50 39.10681 -45.13595 41187 ft 516 kts 87°
2026-04-28 11:50 39.10688 -45.04348 41187 ft 516 kts 87°
2026-04-28 11:51 39.10688 -44.95102 41184 ft 516 kts 87°
2026-04-28 11:51 39.10680 -44.85859 41178 ft 516 kts 87°
2026-04-28 11:52 39.10666 -44.76671 41174 ft 516 kts 87°
2026-04-28 11:52 39.10643 -44.67431 41178 ft 516 kts 87°
2026-04-28 11:53 39.10614 -44.58188 41173 ft 515 kts 87°
2026-04-28 11:53 39.10577 -44.48963 41170 ft 515 kts 88°
2026-04-28 11:54 39.10534 -44.39733 41167 ft 515 kts 88°
2026-04-28 11:54 39.10482 -44.30510 41163 ft 515 kts 88°
2026-04-28 11:55 39.10424 -44.21291 41157 ft 515 kts 88°
2026-04-28 11:55 39.10359 -44.12136 41156 ft 514 kts 88°
2026-04-28 11:56 39.10286 -44.02922 41152 ft 514 kts 88°
2026-04-28 11:56 39.10206 -43.93714 41149 ft 513 kts 88°
2026-04-28 11:57 39.10119 -43.84518 41152 ft 513 kts 88°
2026-04-28 11:57 39.10025 -43.75326 41150 ft 513 kts 88°
2026-04-28 11:58 39.09941 -43.67681 41145 ft 513 kts 88°
2026-04-28 11:58 39.09815 -43.56998 41146 ft 513 kts 88°
2026-04-28 11:59 39.09719 -43.49351 41140 ft 513 kts 88°
2026-04-28 11:59 39.09597 -43.40146 41140 ft 515 kts 88°
2026-04-28 12:00 39.09467 -43.30907 41138 ft 517 kts 88°
2026-04-28 12:00 39.09330 -43.21626 41138 ft 520 kts 88°
2026-04-28 12:01 39.09183 -43.12322 41134 ft 518 kts 88°
2026-04-28 12:01 39.09033 -43.03136 41141 ft 515 kts 88°
2026-04-28 12:02 39.08875 -42.93898 41122 ft 518 kts 88°
2026-04-28 12:02 39.08706 -42.84565 41123 ft 522 kts 88°
2026-04-28 12:03 39.08530 -42.75239 41119 ft 519 kts 88°
2026-04-28 12:03 39.08349 -42.65968 41110 ft 516 kts 88°
2026-04-28 12:04 39.08162 -42.56775 41115 ft 519 kts 88°
2026-04-28 12:04 39.07963 -42.47426 41112 ft 524 kts 88°
2026-04-28 12:05 39.07756 -42.38037 41107 ft 523 kts 88°
2026-04-28 12:05 39.07543 -42.28700 41102 ft 520 kts 88°
2026-04-28 12:06 39.07325 -42.19418 41096 ft 519 kts 88°
2026-04-28 12:06 39.07100 -42.10166 41093 ft 523 kts 88°
2026-04-28 12:07 39.06863 -42.00770 41098 ft 527 kts 88°
2026-04-28 12:07 39.06617 -41.91327 41089 ft 525 kts 88°
2026-04-28 12:08 39.06366 -41.81956 41084 ft 522 kts 88°
2026-04-28 12:08 39.06110 -41.72681 41076 ft 522 kts 88°
2026-04-28 12:09 39.05845 -41.63291 41083 ft 527 kts 88°
2026-04-28 12:09 39.05568 -41.53827 41076 ft 530 kts 88°
2026-04-28 12:10 39.05284 -41.44379 41063 ft 527 kts 88°
2026-04-28 12:10 39.04995 -41.34981 41058 ft 524 kts 88°
2026-04-28 12:11 39.04699 -41.25603 41065 ft 526 kts 88°
2026-04-28 12:11 39.04393 -41.16199 41059 ft 525 kts 89°
2026-04-28 12:12 39.04082 -41.06843 41049 ft 522 kts 89°
2026-04-28 12:12 39.03767 -40.97567 41048 ft 523 kts 89°
2026-04-28 12:13 39.03441 -40.88196 41044 ft 526 kts 89°
2026-04-28 12:13 39.03106 -40.78787 41045 ft 527 kts 89°
2026-04-28 12:14 39.02764 -40.69445 41032 ft 519 kts 89°
2026-04-28 12:14 39.02421 -40.60148 41031 ft 522 kts 89°
2026-04-28 12:15 39.02062 -40.50772 41033 ft 526 kts 89°
2026-04-28 12:15 39.01700 -40.41447 41050 ft 523 kts 89°
2026-04-28 12:16 39.01331 -40.32157 41040 ft 515 kts 89°
2026-04-28 12:16 39.00961 -40.22959 41022 ft 517 kts 89°
2026-04-28 12:17 39.00578 -40.13698 41025 ft 521 kts 90°
2026-04-28 12:17 39.00190 -40.04399 41021 ft 519 kts 89°
2026-04-28 12:18 39.00208 -39.95184 41026 ft 513 kts 83°
2026-04-28 12:18 39.00592 -39.85996 41019 ft 517 kts 84°
2026-04-28 12:19 39.00973 -39.76708 41023 ft 519 kts 84°
2026-04-28 12:19 39.01347 -39.67472 41008 ft 515 kts 84°
2026-04-28 12:20 39.01709 -39.58335 41014 ft 516 kts 84°
2026-04-28 12:20 39.02069 -39.49083 41007 ft 520 kts 84°
2026-04-28 12:21 39.02421 -39.39785 41002 ft 519 kts 84°
2026-04-28 12:21 39.02768 -39.30510 40998 ft 519 kts 84°
2026-04-28 12:22 39.03106 -39.21220 41009 ft 521 kts 85°
2026-04-28 12:22 39.03439 -39.11866 40990 ft 524 kts 85°
2026-04-28 12:23 39.03762 -39.02562 40985 ft 522 kts 85°
2026-04-28 12:23 39.04080 -38.93237 40982 ft 519 kts 85°
2026-04-28 12:24 39.04389 -38.83962 40983 ft 520 kts 85°
2026-04-28 12:24 39.04694 -38.74576 40973 ft 528 kts 85°
2026-04-28 12:25 39.04990 -38.65165 40969 ft 524 kts 85°
2026-04-28 12:25 39.05279 -38.55812 40965 ft 521 kts 86°
2026-04-28 12:26 39.05557 -38.46540 40984 ft 524 kts 86°
2026-04-28 12:26 39.05832 -38.37130 40964 ft 526 kts 86°
2026-04-28 12:27 39.06099 -38.27731 40953 ft 524 kts 86°
2026-04-28 12:27 39.06358 -38.18356 40951 ft 523 kts 86°
2026-04-28 12:28 39.06609 -38.08984 40950 ft 525 kts 86°
2026-04-28 12:28 39.06855 -37.99549 40958 ft 528 kts 86°
2026-04-28 12:29 39.07207 -37.85475 40954 ft 525 kts 86°
2026-04-28 12:30 39.07432 -37.76100 40936 ft 523 kts 86°
2026-04-28 12:30 39.07650 -37.66686 40951 ft 528 kts 87°
2026-04-28 12:31 39.07861 -37.57230 40944 ft 526 kts 87°
2026-04-28 12:31 39.08063 -37.47892 40942 ft 524 kts 87°
2026-04-28 12:32 39.08258 -37.38539 40940 ft 523 kts 87°
2026-04-28 12:32 39.08446 -37.29149 40934 ft 525 kts 88°
2026-04-28 12:33 39.08626 -37.19709 40931 ft 528 kts 88°
2026-04-28 12:33 39.08800 -37.10262 40927 ft 527 kts 88°
2026-04-28 12:34 39.08965 -37.00864 40922 ft 524 kts 88°
2026-04-28 12:34 39.09121 -36.91565 40919 ft 522 kts 88°
2026-04-28 12:35 39.09271 -36.82194 40917 ft 525 kts 88°
2026-04-28 12:35 39.09413 -36.72781 40920 ft 527 kts 88°
2026-04-28 12:36 39.09549 -36.63323 40916 ft 528 kts 88°
2026-04-28 12:36 39.09677 -36.53876 40913 ft 525 kts 88°
2026-04-28 12:37 39.09797 -36.44488 40914 ft 523 kts 88°
2026-04-28 12:37 39.09908 -36.35145 40906 ft 521 kts 88°
2026-04-28 12:38 39.10013 -36.25794 40906 ft 524 kts 89°
2026-04-28 12:38 39.10110 -36.16441 40908 ft 526 kts 89°
2026-04-28 12:39 39.10199 -36.07069 40903 ft 520 kts 89°
2026-04-28 12:39 39.10281 -35.97762 40900 ft 520 kts 89°
2026-04-28 12:40 39.10354 -35.88464 40900 ft 524 kts 89°
2026-04-28 12:40 39.10422 -35.79071 40905 ft 524 kts 89°
2026-04-28 12:41 39.10481 -35.69725 40900 ft 519 kts 89°
2026-04-28 12:41 39.10533 -35.60443 40883 ft 519 kts 90°
2026-04-28 12:42 39.10577 -35.51116 40898 ft 523 kts 90°
2026-04-28 12:42 39.10614 -35.41741 40907 ft 523 kts 90°
2026-04-28 12:43 39.10644 -35.32396 40901 ft 519 kts 90°
2026-04-28 12:43 39.10666 -35.23167 40897 ft 519 kts 90°
2026-04-28 12:44 39.10680 -35.13850 40897 ft 522 kts 90°
2026-04-28 12:44 39.10688 -35.04481 40900 ft 524 kts 90°
2026-04-28 12:45 39.10688 -34.95123 40904 ft 521 kts 91°
2026-04-28 12:45 39.10680 -34.85813 40899 ft 519 kts 91°
2026-04-28 12:46 39.10668 -34.78105 40892 ft 517 kts 91°
2026-04-28 12:46 39.10647 -34.68812 40895 ft 520 kts 91°
2026-04-28 12:47 39.10613 -34.57955 40899 ft 522 kts 91°
2026-04-28 12:47 39.10583 -34.50132 40891 ft 520 kts 91°
2026-04-28 12:48 39.10539 -34.40829 40890 ft 518 kts 92°
2026-04-28 12:48 39.10489 -34.31571 40888 ft 516 kts 92°
2026-04-28 12:49 39.10431 -34.22366 40892 ft 519 kts 92°
2026-04-28 12:49 39.10366 -34.13057 40889 ft 521 kts 92°
2026-04-28 12:50 39.10293 -34.03715 40896 ft 520 kts 92°
2026-04-28 12:50 39.10213 -33.94422 40893 ft 517 kts 92°
2026-04-28 12:51 39.10125 -33.85133 40896 ft 521 kts 92°
2026-04-28 12:51 39.10030 -33.75786 40900 ft 523 kts 92°
2026-04-28 12:52 39.09927 -33.66435 40898 ft 521 kts 93°
2026-04-28 12:52 39.09817 -33.57140 40898 ft 518 kts 93°
2026-04-28 12:53 39.09700 -33.47886 40893 ft 517 kts 93°
2026-04-28 12:53 39.09576 -33.38597 40892 ft 519 kts 93°
2026-04-28 12:54 39.09444 -33.29330 40905 ft 523 kts 93°
2026-04-28 12:54 39.09304 -33.19940 40911 ft 523 kts 93°
2026-04-28 12:55 39.09156 -33.10585 40902 ft 520 kts 94°
2026-04-28 12:55 39.09002 -33.01291 40900 ft 518 kts 94°
2026-04-28 12:56 39.08841 -32.92076 40904 ft 519 kts 94°
2026-04-28 12:56 39.08673 -32.82762 40896 ft 522 kts 94°
2026-04-28 12:57 39.08495 -32.73413 40905 ft 523 kts 94°
2026-04-28 12:57 39.08310 -32.64027 40911 ft 524 kts 94°
2026-04-28 12:58 39.08119 -32.54684 40905 ft 519 kts 94°
2026-04-28 12:58 39.07920 -32.45434 40909 ft 517 kts 94°
2026-04-28 12:59 39.07714 -32.36142 40917 ft 521 kts 94°
2026-04-28 12:59 39.07502 -32.26835 40913 ft 519 kts 95°
2026-04-28 13:00 39.07282 -32.17631 40925 ft 518 kts 94°
2026-04-28 13:00 39.07053 -32.08315 40922 ft 523 kts 95°
2026-04-28 13:01 39.06818 -31.98968 40928 ft 520 kts 95°
2026-04-28 13:01 39.06576 -31.89754 40936 ft 516 kts 95°
2026-04-28 13:02 39.06313 -31.80456 40929 ft 517 kts 97°
2026-04-28 13:02 39.04898 -31.71501 40938 ft 511 kts 110°
2026-04-28 13:03 39.02811 -31.62786 40937 ft 510 kts 109°
2026-04-28 13:03 39.01272 -31.53868 40936 ft 510 kts 106°
2026-04-28 13:04 38.99470 -31.45070 40938 ft 508 kts 109°
2026-04-28 13:04 38.97783 -31.36238 40940 ft 508 kts 107°
2026-04-28 13:05 38.96058 -31.27506 40943 ft 507 kts 108°
2026-04-28 13:05 38.94308 -31.18643 40946 ft 515 kts 107°
2026-04-28 13:06 38.92549 -31.09758 40946 ft 511 kts 108°
2026-04-28 13:06 38.90774 -31.00947 40945 ft 509 kts 107°
2026-04-28 13:07 38.89068 -30.92115 40943 ft 510 kts 108°
2026-04-28 13:07 38.87234 -30.83298 40950 ft 513 kts 108°
2026-04-28 13:08 38.85485 -30.74401 40951 ft 513 kts 108°
2026-04-28 13:08 38.83888 -30.65496 40953 ft 511 kts 105°
2026-04-28 13:09 38.82433 -30.56661 40951 ft 507 kts 106°
2026-04-28 13:09 38.80896 -30.47845 40954 ft 508 kts 106°
2026-04-28 13:10 38.79388 -30.38963 40952 ft 511 kts 106°
2026-04-28 13:10 38.77851 -30.30101 40959 ft 507 kts 106°
2026-04-28 13:11 38.76329 -30.21302 40957 ft 505 kts 106°
2026-04-28 13:11 38.74792 -30.12498 40961 ft 508 kts 106°
2026-04-28 13:12 38.73250 -30.03668 40967 ft 506 kts 106°
2026-04-28 13:12 38.71710 -29.94917 40963 ft 502 kts 106°
2026-04-28 13:13 38.70163 -29.86170 40965 ft 505 kts 106°
2026-04-28 13:13 38.68602 -29.77367 40971 ft 506 kts 106°
2026-04-28 13:14 38.67051 -29.68671 40971 ft 503 kts 107°
2026-04-28 13:14 38.65491 -29.59962 40953 ft 501 kts 107°
2026-04-28 13:15 38.63916 -29.51219 40979 ft 507 kts 107°
2026-04-28 13:15 38.62336 -29.42465 40981 ft 503 kts 107°
2026-04-28 13:16 38.60758 -29.33785 40982 ft 500 kts 107°
2026-04-28 13:16 38.59183 -29.25154 40984 ft 504 kts 107°
2026-04-28 13:17 38.57586 -29.16432 40984 ft 501 kts 107°
2026-04-28 13:17 38.56004 -29.07837 40932 ft 494 kts 107°
2026-04-28 13:18 38.54420 -28.99277 40880 ft 495 kts 107°
2026-04-28 13:18 38.52832 -28.90719 40841 ft 496 kts 107°
2026-04-28 13:19 38.51233 -28.82147 40815 ft 496 kts 107°
2026-04-28 13:19 38.49628 -28.73575 40801 ft 497 kts 107°
2026-04-28 13:20 38.48022 -28.65041 40753 ft 498 kts 107°
2026-04-28 13:20 38.46397 -28.56437 40751 ft 499 kts 107°
2026-04-28 13:21 38.44767 -28.47844 40761 ft 497 kts 107°
2026-04-28 13:21 38.43138 -28.39297 40784 ft 494 kts 107°
2026-04-28 13:22 38.41511 -28.30796 40794 ft 493 kts 107°
2026-04-28 13:22 38.39886 -28.22348 40778 ft 495 kts 107°
2026-04-28 13:23 38.38225 -28.13745 40175 ft 505 kts 107°
2026-04-28 13:23 38.37406 -28.09487 39525 ft 489 kts 108°
2026-04-28 13:23 38.36593 -28.05294 38875 ft 475 kts 108°
2026-04-28 13:23 38.35830 -28.01336 38216 ft 448 kts 109°
2026-04-28 13:24 38.35050 -27.97399 37630 ft 470 kts 109°
2026-04-28 13:24 38.34229 -27.93266 36996 ft 491 kts 108°
2026-04-28 13:24 38.33407 -27.89010 36340 ft 497 kts 108°
2026-04-28 13:24 38.32586 -27.84741 35683 ft 495 kts 108°
2026-04-28 13:25 38.31747 -27.80479 35028 ft 493 kts 108°
2026-04-28 13:25 38.30905 -27.76253 34367 ft 494 kts 109°
2026-04-28 13:25 38.30064 -27.71994 33694 ft 498 kts 109°
2026-04-28 13:25 38.29223 -27.67710 33029 ft 500 kts 109°
2026-04-28 13:26 38.28372 -27.63402 32369 ft 502 kts 109°
2026-04-28 13:26 38.27522 -27.59132 31717 ft 505 kts 109°
2026-04-28 13:26 38.26647 -27.54740 31043 ft 506 kts 109°
2026-04-28 13:26 38.25797 -27.50460 30386 ft 506 kts 109°
2026-04-28 13:27 38.24929 -27.46112 29671 ft 506 kts 109°
2026-04-28 13:27 38.24061 -27.41779 29013 ft 506 kts 109°
2026-04-28 13:27 38.23195 -27.37457 28340 ft 499 kts 109°
2026-04-28 13:27 38.22342 -27.33197 27681 ft 497 kts 109°
2026-04-28 13:28 38.21486 -27.28954 27041 ft 496 kts 109°
2026-04-28 13:28 38.20640 -27.24761 26392 ft 485 kts 109°
2026-04-28 13:28 38.19806 -27.20629 25766 ft 480 kts 109°
2026-04-28 13:28 38.18980 -27.16549 25126 ft 473 kts 109°
2026-04-28 13:29 38.18163 -27.12523 24518 ft 468 kts 109°
2026-04-28 13:29 38.17348 -27.08522 23905 ft 465 kts 109°
2026-04-28 13:29 38.16537 -27.04545 23253 ft 463 kts 109°
2026-04-28 13:29 38.15733 -27.00594 22634 ft 457 kts 109°
2026-04-28 13:30 38.14941 -26.96714 22037 ft 452 kts 109°
2026-04-28 13:30 38.14152 -26.92869 21448 ft 448 kts 109°
2026-04-28 13:30 38.13367 -26.89051 20864 ft 451 kts 109°
2026-04-28 13:30 38.12603 -26.85315 20275 ft 424 kts 108°
2026-04-28 13:31 38.11118 -26.78137 19187 ft 427 kts 109°
2026-04-28 13:31 38.10613 -26.75712 18811 ft 429 kts 108°
2026-04-28 13:31 38.09616 -26.70858 17956 ft 428 kts 108°
2026-04-28 13:32 38.08868 -26.67230 17389 ft 420 kts 108°
2026-04-28 13:32 38.08375 -26.64860 17022 ft 419 kts 108°
2026-04-28 13:32 38.07627 -26.61283 16473 ft 417 kts 108°
2026-04-28 13:32 38.06892 -26.57748 15926 ft 413 kts 108°
2026-04-28 13:33 38.06161 -26.54239 15380 ft 410 kts 108°
2026-04-28 13:33 38.05432 -26.50747 14843 ft 407 kts 108°
2026-04-28 13:33 38.04708 -26.47291 14313 ft 404 kts 108°
2026-04-28 13:33 38.03998 -26.43896 13781 ft 388 kts 108°
2026-04-28 13:34 38.03334 -26.40706 13262 ft 360 kts 108°
2026-04-28 13:34 38.02714 -26.37755 12808 ft 332 kts 108°
2026-04-28 13:34 38.02135 -26.35018 12384 ft 313 kts 108°
2026-04-28 13:34 38.01579 -26.32392 11980 ft 304 kts 108°
2026-04-28 13:35 38.01033 -26.29816 11590 ft 308 kts 108°
2026-04-28 13:35 38.00472 -26.27165 11182 ft 313 kts 108°
2026-04-28 13:35 37.99906 -26.24481 10764 ft 318 kts 108°
2026-04-28 13:35 37.99329 -26.21754 10343 ft 321 kts 108°
2026-04-28 13:36 37.98746 -26.19004 9909 ft 324 kts 108°
2026-04-28 13:36 37.98158 -26.16234 9461 ft 326 kts 108°
2026-04-28 13:36 37.97568 -26.13458 9036 ft 326 kts 108°
2026-04-28 13:36 37.96979 -26.10685 8594 ft 319 kts 108°
2026-04-28 13:37 37.96421 -26.08046 8180 ft 301 kts 108°
2026-04-28 13:37 37.95889 -26.05551 7795 ft 286 kts 109°
2026-04-28 13:37 37.95371 -26.03146 7427 ft 288 kts 108°
2026-04-28 13:37 37.94840 -26.00678 7057 ft 293 kts 109°
2026-04-28 13:38 37.94304 -25.98169 6668 ft 297 kts 108°
2026-04-28 13:38 37.93650 -25.95726 6257 ft 288 kts 120°
2026-04-28 13:38 37.92574 -25.93642 5871 ft 278 kts 125°
2026-04-28 13:38 37.91562 -25.91652 5525 ft 254 kts 141°
2026-04-28 13:39 37.90012 -25.90737 5280 ft 247 kts 175°
2026-04-28 13:39 37.88336 -25.91093 5011 ft 247 kts 199°
2026-04-28 13:39 37.86709 -25.91896 4707 ft 252 kts 200°
2026-04-28 13:39 37.85057 -25.92350 4351 ft 236 kts 180°
2026-04-28 13:40 37.83524 -25.92046 4102 ft 206 kts 169°
2026-04-28 13:40 37.82265 -25.91518 3833 ft 182 kts 160°
2026-04-28 13:40 37.81197 -25.90821 3598 ft 165 kts 153°
2026-04-28 13:40 37.80295 -25.90014 3388 ft 154 kts 147°
2026-04-28 13:41 37.79524 -25.89113 3191 ft 149 kts 140°
2026-04-28 13:41 37.78848 -25.88101 2999 ft 153 kts 133°
2026-04-28 13:41 37.78303 -25.87022 2830 ft 139 kts 128°
2026-04-28 13:41 37.77876 -25.85928 2620 ft 136 kts 123°
2026-04-28 13:42 37.77557 -25.84798 2444 ft 138 kts 115°
2026-04-28 13:42 37.77324 -25.83621 2271 ft 137 kts 115°
2026-04-28 13:42 37.77090 -25.82470 2200 ft 136 kts 115°
2026-04-28 13:42 37.76850 -25.81284 2081 ft 142 kts 114°
2026-04-28 13:43 37.76614 -25.80092 1742 ft 140 kts 112°
2026-04-28 13:43 37.76379 -25.78912 1460 ft 138 kts 112°
2026-04-28 13:43 37.76154 -25.77762 1274 ft 129 kts 113°
2026-04-28 13:43 37.75926 -25.76644 1111 ft 137 kts 112°
2026-04-28 13:44 37.75694 -25.75493 917 ft 133 kts 112°
2026-04-28 13:44 37.75462 -25.74363 836 ft 137 kts 110°
2026-04-28 13:44 37.75200 -25.73186 704 ft 135 kts 112°
2026-04-28 13:44 37.74922 -25.72082 501 ft 122 kts 115°
2026-04-28 13:45 37.74631 -25.71137 323 ft 115 kts 117°
2026-04-28 13:45 37.74352 -25.70229 248 ft 100 kts 120°
2026-04-28 13:45 37.74144 -25.69581 218 ft 52 kts 112°
2026-04-28 13:45 37.74091 -25.69461 218 ft 4 kts 104°
2026-04-28 13:46 37.74107 -25.69467 215 ft 7 kts 287°
2026-04-28 13:46 37.74147 -25.69603 219 ft 24 kts 295°
2026-04-28 13:46 37.74204 -25.69775 228 ft 17 kts 291°
2026-04-28 13:46 37.74202 -25.69932 229 ft 19 kts 230°
2026-04-28 13:47 37.74182 -25.70054 236 ft 13 kts 294°
2026-04-28 13:47 37.74148 -25.70104 237 ft 10 kts 202°
2026-04-28 13:47 37.74129 -25.70079 236 ft 2 kts 80°
2026-04-28 13:47 37.74131 -25.70068 236 ft 0 kts 81°